Location: Bu�n Treun
(12.1333°N, 108.3167°E)
Time: 00:32:11
(UTC+00:00)

Cosmos 1844 Rocket - Pass Details

Date: 13 July 2020
Orbit: 826 x 843 km, 71.0° (Epoch: 03 August)

Event Time Altitude Azimuth Distance (km) Brightness Sun altitude
Rises 13:54:50 0° 328° (NNW) 3,354 6.7 -34.8°
Reaches altitude 10° 13:57:29 10° 318° (NW) 2,423 5.8 -35.3°
Enters shadow 14:01:27 30° 275° (W) 1,430 4.2 -36.1°
